Other Surface Observations
Issued by NWS Tucson, AZ

Home | Current Version | Previous Version | Text Only | Print | Product List | Glossary On
Versions: 1 2 3 4 5 6 7 8 9 10 11 12 13 14 15 16 17 18 19 20 21 22 23 24 25 26 27 28 29 30 31 32 33 34 35 36 37 38 39 40 41 42 43 44 45 46 47 48 49 50
000
SXUS55 KTWC 040516
OSOTWC

WEATHER ROUNDUP FOR SOUTHEAST ARIZONA
NATIONAL WEATHER SERVICE TUCSON AZ
1015 PM MST MON AUG 03 2015

AZZ504>506-514-040615-
LOCATION       SKY/WX    TMP DP  RH WIND       PRES   REMARKS
TUCSON         CLEAR     91  53  27 NW3       29.92S
DAVIS-MONTHAN  CLEAR     89  50  25 NW3       29.91R
CHILDRENS PARK N/A       93  46  20 NW2               PIMA CO DEQ
ALVERNON/22ND  N/A      N/A N/A N/A N/A               PIMA CO DEQ
CHERRY/GLENN   N/A      N/A N/A N/A N/A               PIMA CO DEQ
TANGERINE      N/A       92 N/A N/A N4                PIMA CO DEQ
CONTL RANCH    N/A       96  47  19 N3                PIMA CO DEQ
GRANT/1ST      N/A       95  46  19 NW3               PIMA CO DEQ
CRAYCROFT/22ND N/A      N/A N/A N/A N/A               PIMA CO DEQ
GOLFLINKS/KOLB N/A      N/A N/A N/A N/A               PIMA CO DEQ
AJO/12TH       N/A       93  50  23 W2                PIMA CO DEQ
SAGUARO EAST   N/A      N/A N/A N/A N/A               PIMA CO DEQ
FAIRGROUNDS    N/A       90 N/A N/A NW6               PIMA CO DEQ
SAGUARO        N/A       93  45  19 NE4               *SABINO CYN
SAN CARLOS     N/A       88  44  22 N3                *SAN CARLOS
GREEN VALLEY   N/A       90  48  24 W4                PIMA CO DEQ
HORSE CAMP CYN N/A       87  44  22 W10G14            *ARAVAIPA CYN
RINCON MTNS    N/A       64  41  43 NW3               *NR MANNING CAMP
$$

AZZ509>511-040615-
LOCATION       SKY/WX    TMP DP  RH WIND       PRES   REMARKS
SAFFORD        CLEAR     88  46  23 NW10      29.93R
STRAY HORSE    N/A       67  44  43 N5                *
TRAIL CABIN    N/A       69  49  49 SW3               *N OF GRANVILLE
BLACK HILLS    N/A       89  44  21 N6G11             *N OF FT THOMAS
DRY LAKE       N/A       70  42  36 W5                *NATANES MTNS
NOON CREEK     N/A       76  43  31 SW7G12            *PINALENO MTNS
COLUMBINE      N/A       59  35  41 NW3               *PINALENO MTNS
GUTHRIE        N/A       78  42  28 W13G21            *SW OF GUTHRIE
$$

AZZ502-503-513-040615-
LOCATION       SKY/WX    TMP DP  RH WIND       PRES   REMARKS
NOGALES        CLEAR     75  62  64 CALM      30.05R
SELLS          N/A       92  52  26 W8G16             *
SASABE         N/A       78  60  55 SW8G14            *ALTAR VLY
HOPKINS        N/A       68  49  50 W10G14            *SANTA RITA MTNS
CARR CYN       N/A       75  50  41 SW4G10            *W OF HEREFORD
$$

AZZ507-508-512-040615-
LOCATION       SKY/WX    TMP DP  RH WIND       PRES   REMARKS
SIERRA VISTA   CLEAR     74  57  55 VRB1      30.10S
DOUGLAS        CLEAR     72  57  59 SE9       30.06S
EMPIRE MTNS    N/A       73  50  44 SW5               *LAS CIENEGAS NCA
MULESHOE RANCH N/A       86  43  22 N8G15             *PRESERVE
HEADQUARTERS   N/A       71  52  52 E4                *CHIRICAHUA MTNS
$$

.............................NOTES.............................
THIS IS AN AUTOMATED COLLECTIVE WITH MINIMAL QUALITY CONTROL.
PIMA CO DEQ SITES HAVE NONSTANDARD WIND SENSOR HEIGHTS.
PIMA CO DEQ SITES DO NOT REPORT WIND GUSTS.
* INDICATES WIND SENSORS LOCATED AT 20 FEET INSTEAD OF 33 FEET.
..............................KEY..............................
SKY/WX - SKY CONDITION/WEATHER
TMP    - TEMPERATURE IN FAHRENHEIT
DP     - DEWPOINT IN FAHRENHEIT
RH     - RELATIVE HUMIDITY IN PERCENT
WIND   - DIRECTION AND SPEED IN MILES PER HOUR (MPH)
VRB    - VARIABLE WIND DIRECTION
PRES   - MEAN SEA LEVEL PRESSURE IN INCHES OF MERCURY
         F - FALLING PRESSURE   R - RISING PRESSURE
         S - STEADY PRESSURE
VSB    - VISIBILITY IN MILES
HX     - HEAT INDEX IN FAHRENHEIT
WCI    - WIND CHILL INDEX IN FAHRENHEIT
N/A    - NOT AVAILABLE
AFB    - AIR FORCE BASE
         DAVIS-MONTHAN IS DAVIS-MONTHAN AIR FORCE BASE
CYN    - CANYON
MTNS   - MOUNTAINS
NCA    - NATIONAL CONSERVATION AREA
NR     - NEAR
VLY    - VALLEY
CONTL  - CONTINENTAL
PIMA CO DEQ - PIMA COUNTY DEPT OF ENVIRONMENTAL QUALITY



USA.gov is the U.S. government's official web portal to all federal, state and local government web resources and services.